Погода в Соронге

Индонезия     1°06′16″S   131°36′09″E
темп.,
°C
ветер,
м/с
пор.,
м/с
влажн.,
%
обл.,
%
осадки,
мм/ч
давл.,
гПа
погр.,
м
2 марта, вт
вт200:00+24с009396 0.5 101024
03:00+23св019898 4.8 100924
06:00+23ю009992 5.1 101023
09:00+24ю119796 9.1 101259
12:00+25зюз1496100 5.1 1011385
15:00+23з2799100 8.6 1009386
18:00+23з15100100 6.0 1010296
21:00+23зсз16100100 13.3 1012321
3 марта, ср
ср300:00+22зсз17100100 3.4 1013411
03:00+22юз1399100 4.5 1010190
06:00+22ссв1199100 0.7 101137
09:00+23в1395100 0.8 1012183
12:00+30с2443100 0.0 1011818
15:00+31ссз234395 0.0 10081240
18:00+26ссз127279 0.0 100997
21:00+22с128653 0.0 101124
4 марта, чт
чт400:00+21всв119249 0.0 101123
03:00+21в119569 0.0 101023
06:00+20всв119618 0.0 101123
09:00+28вюв11669 0.0 1012384
12:00+34зюз11410 0.0 10111595
15:00+33зсз32440 0.0 10081769
18:00+27зсз147337 0.0 1009135
21:00+23с118269 0.0 101125
5 марта, пт
пт500:00+22ссв118978 0.0 101123
03:00+22всв019356 0.0 100923
06:00+21в019521 0.0 101023
09:00+29юв017011 0.0 1012472
12:00+33зсз224821 0.0 10101752
15:00+32зсз335111 0.0 10081575
18:00+27ссз267870 0.0 1008390
21:00+23с129883 1.6 101140
6 марта, сб
сб600:00+23ссз129887 0.3 101156
03:00+23ссз129893 0.3 100940
06:00+23с1197100 0.3 101023
09:00+26сз1495100 2.1 1012248
12:00+24с1597100 1.1 1010284
15:00+23ссв2695100 1.3 1008311
18:00+23с1491100 0.0 1009243
21:00+22ссв1193100 0.0 101123